{"data":{"norad_id":57497,"epoch":"2026-09-19T13:19:37.457760Z","epoch_age_seconds":209571,"freshness":"STALE","line1":"1 57497U 23113C   26262.55529465  .00001254  00000+0  55117-4 0  9995","line2":"2 57497  43.0025   1.3009 0001243 264.2557  95.8153 15.27566867173221","mean_motion":15.27566867,"eccentricity":0.0001243,"inclination_deg":43.0025,"raan_deg":1.3009,"arg_perigee_deg":264.2557,"mean_anomaly_deg":95.8153,"bstar":5.5117e-5,"rev_number":17322,"period_min":94.267559156217,"perigee_km":482.2355709281,"apogee_km":483.94127156783,"semimajor_km":6861.225421248,"source":"CELESTRAK","updated_at":"2026-09-21T09:00:33.632406Z"}}